This demonstration page uses our WeatherBlox Daily Observations layout. Learn more.

Left ArrowRight Arrow

Hourly Observations for May 21, 2018

Temp ( °F °C ) Dew Point ( °F °C ) Humidity (%) Winds ( mph kmh ) Pressure ( in mb ) Visibility ( mi km ) Precip ( " mm )
12:53 am 00:53 Clear 61 16.1 49 9.4 65 65 NW 6 9 29.80 1009 10 16 N/A
1:53 am 01:53 Clear 62 16.7 49 9.4 62 62 S 8 13 29.79 1009 10 16 N/A
2:53 am 02:53 Clear 55 12.8 48 8.9 77 77 NE 3 6 29.80 1009 10 16 N/A
3:53 am 03:53 Clear 51 10.6 48 8.9 89 89 NNW 3 6 29.81 1010 10 16 N/A
4:53 am 04:53 Clear 47 8.3 45 7.2 93 93 N N/A 29.82 1010 10 16 N/A
5:53 am 05:53 Sunny 48 8.9 45 7.2 89 89 N N/A 29.83 1010 10 16 N/A
6:53 am 06:53 Sunny 52 11.1 49 9.4 89 89 ESE 3 6 29.83 1010 10 16 N/A
7:53 am 07:53 Sunny 57 13.9 49 9.4 74 74 N N/A 29.84 1011 10 16 N/A
8:53 am 08:53 Partly Cloudy 62 16.7 50 10 65 65 N N/A 29.85 1011 10 16 N/A
9:53 am 09:53 Sunny 66 18.9 52 11.1 61 61 N N/A 29.84 1010 10 16 N/A
10:53 am 10:53 Sunny 70 21.1 52 11.1 53 53 VRB 3 6 29.83 1010 10 16 N/A
11:53 am 11:53 Sunny 74 23.3 52 11.1 46 46 W 6 9 29.82 1010 10 16 N/A
12:53 pm 12:53 Mostly Sunny 77 25 51 10.6 40 40 N N/A 29.82 1010 10 16 N/A
1:53 pm 13:53 Mostly Sunny 78 25.6 47 8.3 33 33 SE 3 6 29.80 1009 10 16 N/A
2:16 pm 14:16 Partly Cloudy with Nearby Thunderstorms 79 26 48 9 34 34 SE 8 13 29.71 1006 10 16 N/A
2:31 pm 14:31 Mostly Cloudy 79 26.1 51 10.6 38 38 SE 15 24 29.68 1005 10 16 N/A
2:53 pm 14:53 Cloudy 74 23.3 50 10 43 43 SE 16 26 29.81 1010 10 16 N/A
3:15 pm 15:15 Partly Cloudy with Nearby Thunderstorms 74 23.3 50 10 43 43 SE 12 19 29.68 1005 10 16 N/A
3:34 pm 15:34 Partly Cloudy 72 22 52 11 50 50 SSE 10 17 29.74 1007 10 16 N/A
3:53 pm 15:53 Partly Cloudy with Nearby Thunderstorms 72 22.2 51 10.6 48 48 S 14 22 29.82 1010 10 16 N/A
4:39 pm 16:39 Mostly Cloudy 73 22.8 52 11.1 48 48 SSE 17 28 29.74 1007 10 16 N/A
4:53 pm 16:53 Mostly Cloudy 73 22.8 51 10.6 46 46 S 16 26 29.83 1010 10 16 N/A
5:53 pm 17:53 Sunny 76 24.4 49 9.4 39 39 SSE 15 24 29.82 1010 10 16 N/A
6:53 pm 18:53 Sunny 74 23.3 52 11.1 46 46 S 10 17 29.81 1010 10 16 N/A
7:53 pm 19:53 Sunny 73 22.8 55 12.8 53 53 S 7 11 29.81 1010 10 16 N/A
8:53 pm 20:53 Sunny 66 18.9 55 12.8 68 68 S 7 11 29.83 1010 10 16 N/A
9:53 pm 21:53 Mostly Clear 60 15.6 54 12.2 80 80 WSW 5 7 29.85 1011 10 16 N/A
10:53 pm 22:53 Clear 59 15 54 12.2 83 83 SW 6 9 29.85 1011 10 16 N/A
11:53 pm 23:53 Mostly Cloudy 59 15 54 12.2 83 83 SW 5 7 29.85 1011 10 16 N/A

Powered by AerisWeather